Weather in Mykolaivka

Ukraine / Dnipropetrovsk Region     48°47′07″N   35°10′28″E
temp.,
°C
wind,
m/s
gust,
m/s
humid.,
%
clouds,
%
prec.,
mm/h
press.,
hPa
HPBL,
m
18 may, wed
wed1800:00+11ssw3377100 0.6 101146
03:00+10nw2385100 0.8 101059
06:00+8nne4882100 0.0 1010186
09:00+11n5864100 0.0 1011497
12:00+14nne554595 0.0 10121796
15:00+15n6640100 0.0 10112113
18:00+13n77576 0.1 10121218
21:00+8n5118821 0.8 1015427
19 may, thu
thu1900:00+8nnw5109476 0.2 1016371
03:00+8n6129575 1.4 1017437
06:00+7n6129138 0.5 1018342
09:00+13n710695 0.5 1019746
12:00+16n895183 0.1 10192118
15:00+17n7946100 0.1 10192374
18:00+15nnw3665100 0.0 1019228
21:00+12nnw4107554 0.1 1020231
20 may, fri
fri2000:00+9nw467977 0.0 102190
03:00+8nw478160 0.0 1021108
06:00+8nw368422 0.0 1021143
09:00+14nw46578 0.0 1022650
12:00+18nw5644100 0.0 10211641
15:00+20wnw464693 0.0 10192146
18:00+17wnw4764100 0.1 1018418
21:00+13n2387100 0.6 101775
21 may, sat
sat2100:00+11s499231 0.1 1014175
03:00+12sw61679100 0.1 1010375
06:00+14wsw71572100 0.0 1007519
09:00+17w8117563 0.1 10051140
12:00+16wnw101272100 0.8 10051224
15:00+13nw81187100 1.1 1007929
18:00+11n8975100 0.0 10111076
21:00+9nne4872100 0.0 1014807
22 may, sun
sun2200:00+6e2386100 0.0 101451
03:00+5ese2289100 0.0 101328
06:00+6ese3681100 0.0 1012207
09:00+8ese4676100 0.3 1011523
12:00+9se3574100 0.8 1011929
15:00+10sse3475100 1.7 1010916
18:00+10wsw217794 0.1 1010291
21:00+8wnw2388100 0.2 101183